Location: Brompton
(51.4000°N, 0.5333°E)
Time: 08:03:22
(UTC+00:00)

Cosmos 1503 Rocket - Pass Details

Date: 11 May 2021
Orbit: 752 x 791 km, 74.0° (Epoch: 13 June)

Event Time Altitude Azimuth Distance (km) Brightness Sun altitude
Rises 20:43:40 0° 207° (SSW) 3,194 7.0 -9.0°
Reaches altitude 10° 20:46:00 10° 209° (SSW) 2,276 6.3 -9.3°
Maximum altitude 20:51:10 77° 296° (WNW) 784 4.2 -9.8°
Drops below altitude 10° 20:56:25 10° 23° (NNE) 2,311 6.8 -10.4°
Sets 20:58:49 0° 25° (NNE) 3,247 7.6 -10.6°
